GALAXY 16 (G-16)

Last updated on Sun Jun 21 2026 00:03:03 GMT+0000 (Coordinated Universal Time)

1 29236U 06023A 26171.37239705 -.00000131 00000+0 00000+0 0 9990 2 29236 0.0399 169.8247 0002593 277.9696 215.8483 1.00271600 73005
UTC large
Height (km)
Speed (km/s)
/
Latitude / Longitude
Inclination (degrees)
Orbital Period (minutes)
Azimuth
Elevation
Range (km)
Doppler Factor

Next 0 passes for location: London (51.5072 / 0.1276)

No passes found over London.
GALAXY 16 (G-16)